CYGFM08 (41888 NORAD) Tracking and Keplerian Element Data

This shows tracking and keplerian element data for the satellite.

Feedback or suggestion? Click here.




ElementValue
Catalog41888
NameCYGFM08
Epoch Orbit13517
Epoch Day145.90299915
Epoch Year2019
RAAN311.0085
Inclination34.9507
Eccentricity0.0015504
Argument of Perigee185.4288
Mean Anonmoly174.6256
Mean Motion15.14612511
Decay Rate2.07E-06
L11 41888U 16078E 19145.90299915 .00000207 00000-0 12661-4 0 9994
L22 41888 34.9507 311.0085 0015504 185.4288 174.6256 15.14612511135173

Live tracking and technical data element details for CYGFM08 (NORAD 41888). CYGFM08 can be tracked NOW for your location showing map with azimuth and elevation plus other details from your city location.

Track the satellite on the map from your city or location and see movement details for azimuth, elevation, latitude, longitude, range, height, and movement on the map or in text.







IsCatalogInMostPopularTable: catalog: 41888, numindb: 220
Update: records affected: 1



GetName: 41888 CYGFM08

Hit Count: updated at: Sun, 26 May 2019 19:31:45 GMT